Weather in Fügen

Austria     47°20′49″N   11°50′57″E
temp.,
°C
wind,
m/s
gust,
m/s
humid.,
%
clouds,
%
prec.,
mm/h
press.,
hPa
HPBL,
m
18 january, mon
mon1801:00−7w1197100 3.1 102531
04:00−8wnw1197100 0.8 102526
07:00−9wsw1197100 1.3 102622
10:00−7w1196100 0.1 1027117
13:00−5wnw129199 0.3 1026373
16:00−7nw119676 0.2 102621
19:00−10ssw229378 0.3 102924
22:00−11s238767 0.0 102925
19 january, tue
tue1901:00−11s237144 0.0 102925
04:00−9ssw236075 0.0 102725
07:00−8s335985 0.0 102625
10:00−3ssw2369100 0.0 102457
13:000ssw238284 0.0 1020111
16:00−1ssw2375100 0.0 101939
19:00−4s335898 0.0 102126
22:00−5s2357100 0.0 102124
20 january, wed
wed2001:00−5s235899 0.0 102125
04:00−6s33617 0.0 101925
07:00−6s33634 0.0 101934
10:00−3s35720 0.0 1018120
13:000ssw46820 0.0 1015254
16:00−3s47811 0.0 1013176
19:00−5s57800 0.0 1015153
22:00−5s58780 0.0 1013176
21 january, thu
thu2101:00−5s587712 0.0 1012197
04:00−5s59760 0.0 1011203
07:00−5s587721 0.0 1011190
10:00−2s58781 0.0 1010295
13:000s478315 0.0 1008368
16:00−1s468129 0.0 1007178
19:00−4s468025 0.0 1008111
22:00−3s5878100 0.0 1006179
22 january, fri
fri2201:00−2s5878100 0.0 1004210
04:00−2s4778100 0.0 1002159
07:00−2s2285100 0.0 100135
10:00−3nw2298100 1.1 1000143
13:00−1s1198100 3.4 998178
16:00−1e119386 0.2 99921
19:00−3nne349993 5.3 1002281
22:00−5ese1296100 4.3 100446